Regional Weather Roundup
Issued by NWS Charleston, WV

Home | Current Version | Previous Version | Text Only | Print | Product List | Glossary Off
Versions: 1 2 3 4 5 6 7 8 9 10 11 12 13 14 15 16 17 18 19 20 21 22 23 24 25 26 27 28 29 30 31 32 33 34 35 36 37 38 39 40 41 42 43 44 45 46 47 48 49 50

000
ASUS41 KRLX 041210
RWRRLX
West Virginia Regional Weather Roundup
National Weather Service Charleston WV
800 AM EDT SAT JUL 04 2015

Note: "fair" indicates few or no clouds below 12,000 feet with no
significant weather and/or obstructions to visibility.

WVZ003-041300-
Northern Panhandle of West Virginia

CITY           SKY/WX    TMP DP  RH WIND       PRES   REMARKS
WHEELING       CLOUDY    66  64  93 NW5       29.93R FOG
$$

WVZ009-041300-
Northwest West Virginia

CITY           SKY/WX    TMP DP  RH WIND       PRES   REMARKS
PARKERSBURG    FOG       66  64  93 CALM      29.97R VSB 1
$$

WVZ006-041300-
Western West Virginia

CITY           SKY/WX    TMP DP  RH WIND       PRES   REMARKS
HUNTINGTON     CLOUDY    66  65  96 NW5       29.96R FOG
$$

WVZ015-041300-
West Central West Virginia

CITY           SKY/WX    TMP DP  RH WIND       PRES   REMARKS
CHARLESTON     LGT RAIN  68  65  90 NW5       29.94R FOG
$$

WVZ022-031-041300-
North Central West Virginia

CITY           SKY/WX    TMP DP  RH WIND       PRES   REMARKS
CLARKSBURG     CLOUDY    68  66  93 W6        29.92R
MORGANTOWN     LGT RAIN  69  64  84 NW6       29.92R VSB 1
$$

WVZ025-035-042-045-041300-
Southern West Virginia

CITY           SKY/WX    TMP DP  RH WIND       PRES   REMARKS
BECKLEY        CLOUDY    65  62  90 SW8       30.00S
LOGAN          LGT RAIN  66  66 100 SW6       29.94R
BLUEFIELD      CLOUDY    66  62  87 W9        30.03R
LEWISBURG      PTSUNNY   67  65  93 SW8       29.99R
$$

WVZ047-041300-
Northern Mountains of West Virginia

CITY           SKY/WX    TMP DP  RH WIND       PRES   REMARKS
ELKINS         HVY RAIN  65  63  93 CALM      29.97R FOG
$$

WVZ052-041300-
Eastern Panhandle of West Virginia

CITY           SKY/WX    TMP DP  RH WIND       PRES   REMARKS
MARTINSBURG    CLOUDY    68  66  93 CALM      29.91R FOG
PETERSBURG     CLOUDY    67  64  89 CALM      29.92R FOG
$$



USA.gov is the U.S. government's official web portal to all federal, state and local government web resources and services.